Year,Month,Day,Hour,Minute,Value (Times are PST for temperature in C)
2007,09,14,00,00,12.90
2007,09,14,00,01,12.90
2007,09,14,00,02,12.90
2007,09,14,00,03,12.90
2007,09,14,00,04,12.90
2007,09,14,00,05,13.00
2007,09,14,00,06,13.00
2007,09,14,00,07,13.00
2007,09,14,00,08,13.00
2007,09,14,00,09,13.00
2007,09,14,00,10,13.00
2007,09,14,00,11,13.00
2007,09,14,00,12,13.00
2007,09,14,00,13,13.00
2007,09,14,00,14,13.00
2007,09,14,00,15,13.00
2007,09,14,00,16,13.00
2007,09,14,00,17,13.00
2007,09,14,00,18,13.00
2007,09,14,00,19,13.00
2007,09,14,00,20,12.90
2007,09,14,00,21,12.90
2007,09,14,00,22,12.90
2007,09,14,00,23,12.90
2007,09,14,00,24,12.90
2007,09,14,00,25,12.80
2007,09,14,00,26,12.80
2007,09,14,00,27,12.80
2007,09,14,00,28,12.80
2007,09,14,00,29,12.80
2007,09,14,00,30,12.80
2007,09,14,00,31,12.80
2007,09,14,00,32,12.70
2007,09,14,00,33,12.70
2007,09,14,00,34,12.60
2007,09,14,00,35,12.60
2007,09,14,00,36,12.60
2007,09,14,00,37,12.60
2007,09,14,00,38,12.50
2007,09,14,00,39,12.50
2007,09,14,00,40,12.50
2007,09,14,00,41,12.50
2007,09,14,00,42,12.50
2007,09,14,00,43,12.40
2007,09,14,00,44,12.40
2007,09,14,00,45,12.40
2007,09,14,00,46,12.40
2007,09,14,00,47,12.40
2007,09,14,00,48,12.40
2007,09,14,00,49,12.30
2007,09,14,00,50,12.30
2007,09,14,00,51,12.30
2007,09,14,00,52,12.30
2007,09,14,00,53,12.30
2007,09,14,00,54,12.30
2007,09,14,00,55,12.30
2007,09,14,00,56,12.30
2007,09,14,00,57,12.30
2007,09,14,00,58,12.30
2007,09,14,00,59,12.30
2007,09,14,01,00,12.20
2007,09,14,01,01,12.20
2007,09,14,01,02,12.20
2007,09,14,01,03,12.20
2007,09,14,01,04,12.20
2007,09,14,01,05,12.10
2007,09,14,01,06,12.10
2007,09,14,01,07,12.10
2007,09,14,01,08,12.10
2007,09,14,01,09,12.10
2007,09,14,01,10,12.10
2007,09,14,01,11,12.00
2007,09,14,01,12,12.00
2007,09,14,01,13,12.00
2007,09,14,01,14,12.00
2007,09,14,01,15,12.00
2007,09,14,01,16,12.00
2007,09,14,01,17,12.00
2007,09,14,01,18,12.00
2007,09,14,01,19,12.00
2007,09,14,01,20,12.00
2007,09,14,01,21,11.90
2007,09,14,01,22,11.90
2007,09,14,01,23,11.90
2007,09,14,01,24,11.90
2007,09,14,01,25,11.90
2007,09,14,01,26,11.90
2007,09,14,01,27,11.90
2007,09,14,01,28,11.90
2007,09,14,01,29,11.90
2007,09,14,01,30,11.80
2007,09,14,01,31,11.80
2007,09,14,01,32,11.80
2007,09,14,01,33,11.80
2007,09,14,01,34,11.80
2007,09,14,01,35,11.80
2007,09,14,01,36,11.80
2007,09,14,01,37,11.80
2007,09,14,01,38,11.80
2007,09,14,01,39,11.80
2007,09,14,01,40,11.80
2007,09,14,01,41,11.80
2007,09,14,01,42,11.70
2007,09,14,01,43,11.70
2007,09,14,01,44,11.70
2007,09,14,01,45,11.70
2007,09,14,01,46,11.70
2007,09,14,01,47,11.70
2007,09,14,01,48,11.60
2007,09,14,01,49,11.60
2007,09,14,01,50,11.60
2007,09,14,01,51,11.60
2007,09,14,01,52,11.60
2007,09,14,01,53,11.60
2007,09,14,01,54,11.60
2007,09,14,01,55,11.60
2007,09,14,01,56,11.60
2007,09,14,01,57,11.60
2007,09,14,01,58,11.60
2007,09,14,01,59,11.60
2007,09,14,02,00,11.60
2007,09,14,02,01,11.60
2007,09,14,02,02,11.60
2007,09,14,02,03,11.60
2007,09,14,02,04,11.50
2007,09,14,02,05,11.40
2007,09,14,02,06,11.40
2007,09,14,02,07,11.40
2007,09,14,02,08,11.40
2007,09,14,02,09,11.40
2007,09,14,02,10,11.40
2007,09,14,02,11,11.40
2007,09,14,02,12,11.40
2007,09,14,02,13,11.40
2007,09,14,02,14,11.40
2007,09,14,02,15,11.40
2007,09,14,02,16,11.40
2007,09,14,02,17,11.40
2007,09,14,02,18,11.30
2007,09,14,02,19,11.30
2007,09,14,02,20,11.30
2007,09,14,02,21,11.20
2007,09,14,02,22,11.20
2007,09,14,02,23,11.20
2007,09,14,02,24,11.20
2007,09,14,02,25,11.20
2007,09,14,02,26,11.20
2007,09,14,02,27,11.10
2007,09,14,02,28,11.10
2007,09,14,02,29,11.10
2007,09,14,02,30,11.10
2007,09,14,02,31,11.10
2007,09,14,02,32,11.10
2007,09,14,02,33,11.10
2007,09,14,02,34,11.10
2007,09,14,02,35,11.10
2007,09,14,02,36,11.10
2007,09,14,02,37,11.10
2007,09,14,02,38,11.20
2007,09,14,02,39,11.20
2007,09,14,02,40,11.20
2007,09,14,02,41,11.20
2007,09,14,02,42,11.20
2007,09,14,02,43,11.20
2007,09,14,02,44,11.20
2007,09,14,02,45,11.20
2007,09,14,02,46,11.20
2007,09,14,02,47,11.20
2007,09,14,02,48,11.10
2007,09,14,02,49,11.10
2007,09,14,02,50,11.10
2007,09,14,02,51,11.10
2007,09,14,02,52,11.10
2007,09,14,02,53,11.10
2007,09,14,02,54,11.10
2007,09,14,02,55,11.10
2007,09,14,02,56,11.10
2007,09,14,02,57,11.10
2007,09,14,02,58,11.10
2007,09,14,02,59,11.10
2007,09,14,03,00,11.10
2007,09,14,03,01,11.10
2007,09,14,03,02,11.10
2007,09,14,03,03,11.10
2007,09,14,03,04,11.10
2007,09,14,03,05,11.10
2007,09,14,03,06,10.90
2007,09,14,03,07,10.90
2007,09,14,03,08,10.90
2007,09,14,03,09,10.90
2007,09,14,03,10,10.90
2007,09,14,03,11,10.90
2007,09,14,03,12,10.80
2007,09,14,03,13,10.80
2007,09,14,03,14,10.80
2007,09,14,03,15,10.80
2007,09,14,03,16,10.70
2007,09,14,03,17,10.70
2007,09,14,03,18,10.70
2007,09,14,03,19,10.70
2007,09,14,03,20,10.60
2007,09,14,03,21,10.60
2007,09,14,03,22,10.60
2007,09,14,03,23,10.60
2007,09,14,03,24,10.60
2007,09,14,03,25,10.60
2007,09,14,03,26,10.60
2007,09,14,03,27,10.50
2007,09,14,03,28,10.40
2007,09,14,03,29,10.40
2007,09,14,03,30,10.40
2007,09,14,03,31,10.40
2007,09,14,03,32,10.30
2007,09,14,03,33,10.30
2007,09,14,03,34,10.30
2007,09,14,03,35,10.20
2007,09,14,03,36,10.20
2007,09,14,03,37,10.20
2007,09,14,03,38,10.20
2007,09,14,03,39,10.20
2007,09,14,03,40,10.20
2007,09,14,03,41,10.20
2007,09,14,03,42,10.20
2007,09,14,03,43,10.20
2007,09,14,03,44,10.20
2007,09,14,03,45,10.20
2007,09,14,03,46,10.20
2007,09,14,03,47,10.10
2007,09,14,03,48,10.10
2007,09,14,03,49,10.10
2007,09,14,03,50,10.10
2007,09,14,03,51,10.10
2007,09,14,03,52,10.10
2007,09,14,03,53,10.10
2007,09,14,03,54,9.90
2007,09,14,03,55,9.90
2007,09,14,03,56,9.90
2007,09,14,03,57,9.90
2007,09,14,03,58,9.90
2007,09,14,03,59,9.90
2007,09,14,04,00,9.80
2007,09,14,04,01,9.80
2007,09,14,04,02,9.80
2007,09,14,04,03,9.80
2007,09,14,04,04,9.70
2007,09,14,04,05,9.70
2007,09,14,04,06,9.70
2007,09,14,04,07,9.70
2007,09,14,04,08,9.70
2007,09,14,04,09,9.70
2007,09,14,04,10,9.70
2007,09,14,04,11,9.70
2007,09,14,04,12,9.70
2007,09,14,04,13,9.70
2007,09,14,04,14,9.70
2007,09,14,04,15,9.60
2007,09,14,04,16,9.60
2007,09,14,04,17,9.60
2007,09,14,04,18,9.60
2007,09,14,04,19,9.50
2007,09,14,04,20,9.50
2007,09,14,04,21,9.50
2007,09,14,04,22,9.50
2007,09,14,04,23,9.40
2007,09,14,04,24,9.40
2007,09,14,04,25,9.40
2007,09,14,04,26,9.40
2007,09,14,04,27,9.40
2007,09,14,04,28,9.40
2007,09,14,04,29,9.40
2007,09,14,04,30,9.40
2007,09,14,04,31,9.40
2007,09,14,04,32,9.40
2007,09,14,04,33,9.40
2007,09,14,04,34,9.40
2007,09,14,04,35,9.40
2007,09,14,04,36,9.30
2007,09,14,04,37,9.30
2007,09,14,04,38,9.30
2007,09,14,04,39,9.30
2007,09,14,04,40,9.30
2007,09,14,04,41,9.30
2007,09,14,04,42,9.30
2007,09,14,04,43,9.20
2007,09,14,04,44,9.20
2007,09,14,04,45,9.20
2007,09,14,04,46,9.20
2007,09,14,04,47,9.20
2007,09,14,04,48,9.20
2007,09,14,04,49,9.20
2007,09,14,04,50,9.20
2007,09,14,04,51,9.20
2007,09,14,04,52,9.20
2007,09,14,04,53,9.20
2007,09,14,04,54,9.20
2007,09,14,04,55,9.20
2007,09,14,04,56,9.20
2007,09,14,04,57,9.30
2007,09,14,04,58,9.30
2007,09,14,04,59,9.30
2007,09,14,05,00,9.30
2007,09,14,05,01,9.30
2007,09,14,05,02,9.30
2007,09,14,05,03,9.30
2007,09,14,05,04,9.30
2007,09,14,05,05,9.30
2007,09,14,05,06,9.30
2007,09,14,05,07,9.30
2007,09,14,05,08,9.30
2007,09,14,05,09,9.30
2007,09,14,05,10,9.30
2007,09,14,05,11,9.30
2007,09,14,05,12,9.30
2007,09,14,05,13,9.20
2007,09,14,05,14,9.20
2007,09,14,05,15,9.20
2007,09,14,05,16,9.30
2007,09,14,05,17,9.30
2007,09,14,05,18,9.30
2007,09,14,05,19,9.30
2007,09,14,05,20,9.30
2007,09,14,05,21,9.30
2007,09,14,05,22,9.30
2007,09,14,05,23,9.30
2007,09,14,05,24,9.20
2007,09,14,05,25,9.20
2007,09,14,05,26,9.20
2007,09,14,05,27,9.20
2007,09,14,05,28,9.20
2007,09,14,05,29,9.20
2007,09,14,05,30,9.20
2007,09,14,05,31,9.20
2007,09,14,05,32,9.20
2007,09,14,05,33,9.20
2007,09,14,05,34,9.20
2007,09,14,05,35,9.20
2007,09,14,05,36,9.20
2007,09,14,05,37,9.20
2007,09,14,05,38,9.20
2007,09,14,05,39,9.20
2007,09,14,05,40,9.10
2007,09,14,05,41,9.10
2007,09,14,05,42,9.10
2007,09,14,05,43,9.10
2007,09,14,05,44,9.10
2007,09,14,05,45,9.10
2007,09,14,05,46,9.10
2007,09,14,05,47,9.10
2007,09,14,05,48,9.00
2007,09,14,05,49,9.00
2007,09,14,05,50,9.00
2007,09,14,05,51,9.00
2007,09,14,05,52,9.00
2007,09,14,05,53,9.10
2007,09,14,05,54,9.10
2007,09,14,05,55,9.10
2007,09,14,05,56,9.10
2007,09,14,05,57,9.10
2007,09,14,05,58,9.10
2007,09,14,05,59,9.10
2007,09,14,06,00,9.20
2007,09,14,06,01,9.20
2007,09,14,06,02,9.20
2007,09,14,06,03,9.20
2007,09,14,06,04,9.20
2007,09,14,06,05,9.20
2007,09,14,06,06,9.20
2007,09,14,06,07,9.20
2007,09,14,06,08,9.10
2007,09,14,06,09,9.10
2007,09,14,06,10,9.10
2007,09,14,06,11,9.10
2007,09,14,06,12,9.00
2007,09,14,06,13,9.00
2007,09,14,06,14,9.00
2007,09,14,06,15,9.00
2007,09,14,06,16,9.00
2007,09,14,06,17,8.90
2007,09,14,06,18,8.90
2007,09,14,06,19,8.90
2007,09,14,06,20,8.90
2007,09,14,06,21,8.80
2007,09,14,06,22,8.80
2007,09,14,06,23,8.80
2007,09,14,06,24,8.80
2007,09,14,06,25,8.80
2007,09,14,06,26,8.70
2007,09,14,06,27,8.70
2007,09,14,06,28,8.70
2007,09,14,06,29,8.70
2007,09,14,06,30,8.70
2007,09,14,06,31,8.70
2007,09,14,06,32,8.70
2007,09,14,06,33,8.70
2007,09,14,06,34,8.70
2007,09,14,06,35,8.70
2007,09,14,06,36,8.70
2007,09,14,06,37,8.70
2007,09,14,06,38,8.60
2007,09,14,06,39,8.60
2007,09,14,06,40,8.60
2007,09,14,06,41,8.60
2007,09,14,06,42,8.50
2007,09,14,06,43,8.50
2007,09,14,06,44,8.50
2007,09,14,06,45,8.50
2007,09,14,06,46,8.50
2007,09,14,06,47,8.50
2007,09,14,06,48,8.50
2007,09,14,06,49,8.50
2007,09,14,06,50,8.50
2007,09,14,06,51,8.60
2007,09,14,06,52,8.60
2007,09,14,06,53,8.60
2007,09,14,06,54,8.60
2007,09,14,06,55,8.60
2007,09,14,06,56,8.70
2007,09,14,06,57,8.70
2007,09,14,06,58,8.70
2007,09,14,06,59,8.70
2007,09,14,07,00,8.70
2007,09,14,07,01,8.70
2007,09,14,07,02,8.70
2007,09,14,07,03,8.70
2007,09,14,07,04,8.70
2007,09,14,07,05,8.70
2007,09,14,07,06,8.70
2007,09,14,07,07,8.70
2007,09,14,07,08,8.60
2007,09,14,07,09,8.60
2007,09,14,07,10,8.60
2007,09,14,07,11,8.60
2007,09,14,07,12,8.60
2007,09,14,07,13,8.50
2007,09,14,07,14,8.50
2007,09,14,07,15,8.50
2007,09,14,07,16,8.50
2007,09,14,07,17,8.50
2007,09,14,07,18,8.50
2007,09,14,07,19,8.50
2007,09,14,07,20,8.50
2007,09,14,07,21,8.50
2007,09,14,07,22,8.50
2007,09,14,07,23,8.50
2007,09,14,07,24,8.50
2007,09,14,07,25,8.50
2007,09,14,07,26,8.50
2007,09,14,07,27,8.50
2007,09,14,07,28,8.50
2007,09,14,07,29,8.60
2007,09,14,07,30,8.60
2007,09,14,07,31,8.60
2007,09,14,07,32,8.60
2007,09,14,07,33,8.70
2007,09,14,07,34,8.70
2007,09,14,07,35,8.70
2007,09,14,07,36,8.70
2007,09,14,07,37,8.70
2007,09,14,07,38,8.80
2007,09,14,07,39,8.80
2007,09,14,07,40,8.90
2007,09,14,07,41,8.90
2007,09,14,07,42,9.00
2007,09,14,07,43,9.00
2007,09,14,07,44,9.00
2007,09,14,07,45,9.10
2007,09,14,07,46,9.10
2007,09,14,07,47,9.10
2007,09,14,07,48,9.20
2007,09,14,07,49,9.20
2007,09,14,07,50,9.20
2007,09,14,07,51,9.20
2007,09,14,07,52,9.30
2007,09,14,07,53,9.30
2007,09,14,07,54,9.40
2007,09,14,07,55,9.50
2007,09,14,07,56,9.60
2007,09,14,07,57,9.70
2007,09,14,07,58,9.70
2007,09,14,07,59,9.80
2007,09,14,08,00,9.90
2007,09,14,08,01,10.00
2007,09,14,08,02,10.10
2007,09,14,08,03,10.20
2007,09,14,08,04,10.20
2007,09,14,08,05,10.30
2007,09,14,08,06,10.40
2007,09,14,08,07,10.50
2007,09,14,08,08,10.70
2007,09,14,08,09,10.80
2007,09,14,08,10,10.90
2007,09,14,08,11,11.00
2007,09,14,08,12,11.10
2007,09,14,08,13,11.20
2007,09,14,08,14,11.30
2007,09,14,08,15,11.30
2007,09,14,08,16,11.40
2007,09,14,08,17,11.40
2007,09,14,08,18,11.50
2007,09,14,08,19,11.60
2007,09,14,08,20,11.60
2007,09,14,08,21,11.70
2007,09,14,08,22,11.80
2007,09,14,08,23,11.80
2007,09,14,08,24,11.90
2007,09,14,08,25,12.00
2007,09,14,08,26,12.00
2007,09,14,08,27,12.10
2007,09,14,08,28,12.20
2007,09,14,08,29,12.30
2007,09,14,08,30,12.30
2007,09,14,08,31,12.40
2007,09,14,08,32,12.50
2007,09,14,08,33,12.60
2007,09,14,08,34,12.60
2007,09,14,08,35,12.70
2007,09,14,08,36,12.80
2007,09,14,08,37,12.80
2007,09,14,08,38,12.80
2007,09,14,08,39,12.90
2007,09,14,08,40,12.90
2007,09,14,08,41,13.00
2007,09,14,08,42,13.00
2007,09,14,08,43,13.00
2007,09,14,08,44,13.10
2007,09,14,08,45,13.10
2007,09,14,08,46,13.10
2007,09,14,08,47,13.10
2007,09,14,08,48,13.20
2007,09,14,08,49,13.20
2007,09,14,08,50,13.30
2007,09,14,08,51,13.30
2007,09,14,08,52,13.30
2007,09,14,08,53,13.30
2007,09,14,08,54,13.30
2007,09,14,08,55,13.30
2007,09,14,08,56,13.40
2007,09,14,08,57,13.50
2007,09,14,08,58,13.60
2007,09,14,08,59,13.70
2007,09,14,09,00,13.70
2007,09,14,09,01,13.80
2007,09,14,09,02,13.80
2007,09,14,09,03,13.90
2007,09,14,09,04,13.90
2007,09,14,09,05,13.90
2007,09,14,09,06,14.00
2007,09,14,09,07,14.10
2007,09,14,09,08,14.20
2007,09,14,09,09,14.20
2007,09,14,09,10,14.20
2007,09,14,09,11,14.20
2007,09,14,09,12,14.20
2007,09,14,09,13,14.20
2007,09,14,09,14,14.20
2007,09,14,09,15,14.20
2007,09,14,09,16,14.20
2007,09,14,09,17,14.30
2007,09,14,09,18,14.30
2007,09,14,09,19,14.40
2007,09,14,09,20,14.40
2007,09,14,09,21,14.40
2007,09,14,09,22,14.40
2007,09,14,09,23,14.40
2007,09,14,09,24,14.40
2007,09,14,09,25,14.40
2007,09,14,09,26,14.40
2007,09,14,09,27,14.50
2007,09,14,09,28,14.50
2007,09,14,09,29,14.50
2007,09,14,09,30,14.60
2007,09,14,09,31,14.60
2007,09,14,09,32,14.60
2007,09,14,09,33,14.70
2007,09,14,09,34,14.70
2007,09,14,09,35,14.80
2007,09,14,09,36,14.80
2007,09,14,09,37,14.80
2007,09,14,09,38,14.80
2007,09,14,09,39,14.80
2007,09,14,09,40,14.90
2007,09,14,09,41,14.90
2007,09,14,09,42,15.00
2007,09,14,09,43,15.00
2007,09,14,09,44,15.10
2007,09,14,09,45,15.10
2007,09,14,09,46,15.20
2007,09,14,09,47,15.30
2007,09,14,09,48,15.30
2007,09,14,09,49,15.30
2007,09,14,09,50,15.40
2007,09,14,09,51,15.40
2007,09,14,09,52,15.40
2007,09,14,09,53,15.40
2007,09,14,09,54,15.40
2007,09,14,09,55,15.40
2007,09,14,09,56,15.40
2007,09,14,09,57,15.50
2007,09,14,09,58,15.50
2007,09,14,09,59,15.50
2007,09,14,10,00,15.60
2007,09,14,10,01,15.60
2007,09,14,10,02,15.60
2007,09,14,10,03,15.60
2007,09,14,10,04,15.60
2007,09,14,10,05,15.60
2007,09,14,10,06,15.60
2007,09,14,10,07,15.60
2007,09,14,10,08,15.60
2007,09,14,10,09,15.70
2007,09,14,10,10,15.70
2007,09,14,10,11,15.80
2007,09,14,10,12,15.80
2007,09,14,10,13,15.80
2007,09,14,10,14,15.80
2007,09,14,10,15,15.80
2007,09,14,10,16,15.90
2007,09,14,10,17,15.90
2007,09,14,10,18,16.00
2007,09,14,10,19,16.10
2007,09,14,10,20,16.10
2007,09,14,10,21,16.10
2007,09,14,10,22,16.10
2007,09,14,10,23,16.20
2007,09,14,10,24,16.20
2007,09,14,10,25,16.20
2007,09,14,10,26,16.30
2007,09,14,10,27,16.30
2007,09,14,10,28,16.30
2007,09,14,10,29,16.40
2007,09,14,10,30,16.50
2007,09,14,10,31,16.60
2007,09,14,10,32,16.60
2007,09,14,10,33,16.70
2007,09,14,10,34,16.70
2007,09,14,10,35,16.80
2007,09,14,10,36,16.80
2007,09,14,10,37,16.80
2007,09,14,10,38,16.80
2007,09,14,10,39,16.80
2007,09,14,10,40,16.90
2007,09,14,10,41,16.90
2007,09,14,10,42,17.00
2007,09,14,10,43,17.00
2007,09,14,10,44,17.10
2007,09,14,10,45,17.20
2007,09,14,10,46,17.20
2007,09,14,10,47,17.30
2007,09,14,10,48,17.30
2007,09,14,10,49,17.40
2007,09,14,10,50,17.40
2007,09,14,10,51,17.40
2007,09,14,10,52,17.40
2007,09,14,10,53,17.40
2007,09,14,10,54,17.30
2007,09,14,10,55,17.40
2007,09,14,10,56,17.40
2007,09,14,10,57,17.40
2007,09,14,10,58,17.40
2007,09,14,10,59,17.40
2007,09,14,11,00,17.40
2007,09,14,11,01,17.40
2007,09,14,11,02,17.40
2007,09,14,11,03,17.40
2007,09,14,11,04,17.40
2007,09,14,11,05,17.50
2007,09,14,11,06,17.50
2007,09,14,11,07,17.40
2007,09,14,11,08,17.40
2007,09,14,11,09,17.40
2007,09,14,11,10,17.40
2007,09,14,11,11,17.40
2007,09,14,11,12,17.40
2007,09,14,11,13,17.50
2007,09,14,11,14,17.60
2007,09,14,11,15,17.50
2007,09,14,11,16,17.50
2007,09,14,11,17,17.50
2007,09,14,11,18,17.50
2007,09,14,11,19,17.50
2007,09,14,11,20,17.60
2007,09,14,11,21,17.60
2007,09,14,11,22,17.60
2007,09,14,11,23,17.60
2007,09,14,11,24,17.60
2007,09,14,11,25,17.50
2007,09,14,11,26,17.50
2007,09,14,11,27,17.50
2007,09,14,11,28,17.50
2007,09,14,11,29,17.50
2007,09,14,11,30,17.60
2007,09,14,11,31,17.60
2007,09,14,11,32,17.70
2007,09,14,11,33,17.70
2007,09,14,11,34,17.80
2007,09,14,11,35,17.80
2007,09,14,11,36,17.90
2007,09,14,11,37,17.90
2007,09,14,11,38,17.90
2007,09,14,11,39,17.90
2007,09,14,11,40,17.80
2007,09,14,11,41,17.80
2007,09,14,11,42,17.90
2007,09,14,11,43,17.90
2007,09,14,11,44,17.90
2007,09,14,11,45,17.90
2007,09,14,11,46,17.90
2007,09,14,11,47,17.90
2007,09,14,11,48,18.00
2007,09,14,11,49,18.10
2007,09,14,11,50,17.90
2007,09,14,11,51,17.90
2007,09,14,11,52,17.90
2007,09,14,11,53,17.90
2007,09,14,11,54,17.90
2007,09,14,11,55,17.90
2007,09,14,11,56,17.90
2007,09,14,11,57,18.00
2007,09,14,11,58,18.20
2007,09,14,11,59,18.20
2007,09,14,12,00,18.30
2007,09,14,12,01,18.30
2007,09,14,12,02,18.30
2007,09,14,12,03,18.20
2007,09,14,12,04,18.20
2007,09,14,12,05,18.20
2007,09,14,12,06,18.20
2007,09,14,12,07,18.20
2007,09,14,12,08,18.30
2007,09,14,12,09,18.40
2007,09,14,12,10,18.50
2007,09,14,12,11,18.60
2007,09,14,12,12,18.60
2007,09,14,12,13,18.70
2007,09,14,12,14,18.80
2007,09,14,12,15,18.80
2007,09,14,12,16,18.90
2007,09,14,12,17,18.90
2007,09,14,12,18,18.90
2007,09,14,12,19,18.80
2007,09,14,12,20,18.80
2007,09,14,12,21,18.80
2007,09,14,12,22,18.80
2007,09,14,12,23,18.70
2007,09,14,12,24,18.70
2007,09,14,12,25,18.70
2007,09,14,12,26,18.70
2007,09,14,12,27,18.70
2007,09,14,12,28,18.70
2007,09,14,12,29,18.70
2007,09,14,12,30,18.70
2007,09,14,12,31,18.70
2007,09,14,12,32,18.70
2007,09,14,12,33,18.70
2007,09,14,12,34,18.70
2007,09,14,12,35,18.80
2007,09,14,12,36,18.70
2007,09,14,12,37,18.60
2007,09,14,12,38,18.60
2007,09,14,12,39,18.50
2007,09,14,12,40,18.30
2007,09,14,12,41,18.30
2007,09,14,12,42,18.40
2007,09,14,12,43,18.50
2007,09,14,12,44,18.60
2007,09,14,12,45,18.60
2007,09,14,12,46,18.70
2007,09,14,12,47,18.70
2007,09,14,12,48,18.70
2007,09,14,12,49,18.80
2007,09,14,12,50,18.90
2007,09,14,12,51,18.90
2007,09,14,12,52,18.90
2007,09,14,12,53,18.90
2007,09,14,12,54,19.00
2007,09,14,12,55,19.10
2007,09,14,12,56,19.10
2007,09,14,12,57,19.00
2007,09,14,12,58,18.90
2007,09,14,12,59,18.90
2007,09,14,13,00,18.90
2007,09,14,13,01,19.10
2007,09,14,13,02,19.20
2007,09,14,13,03,19.30
2007,09,14,13,04,19.40
2007,09,14,13,05,19.40
2007,09,14,13,06,19.30
2007,09,14,13,07,19.30
2007,09,14,13,08,19.30
2007,09,14,13,09,19.30
2007,09,14,13,10,19.30
2007,09,14,13,11,19.30
2007,09,14,13,12,19.30
2007,09,14,13,13,19.40
2007,09,14,13,14,19.40
2007,09,14,13,15,19.60
2007,09,14,13,16,19.60
2007,09,14,13,17,19.80
2007,09,14,13,18,19.90
2007,09,14,13,19,19.90
2007,09,14,13,20,20.10
2007,09,14,13,21,20.10
2007,09,14,13,22,20.20
2007,09,14,13,23,20.20
2007,09,14,13,24,20.20
2007,09,14,13,25,20.20
2007,09,14,13,26,20.30
2007,09,14,13,27,20.30
2007,09,14,13,28,20.30
2007,09,14,13,29,20.20
2007,09,14,13,30,20.00
2007,09,14,13,31,19.90
2007,09,14,13,32,19.90
2007,09,14,13,33,20.00
2007,09,14,13,34,20.10
2007,09,14,13,35,20.20
2007,09,14,13,36,20.20
2007,09,14,13,37,20.30
2007,09,14,13,38,20.30
2007,09,14,13,39,20.20
2007,09,14,13,40,20.20
2007,09,14,13,41,20.20
2007,09,14,13,42,20.20
2007,09,14,13,43,20.20
2007,09,14,13,44,20.20
2007,09,14,13,45,20.20
2007,09,14,13,46,20.20
2007,09,14,13,47,20.20
2007,09,14,13,48,20.10
2007,09,14,13,49,20.10
2007,09,14,13,50,20.20
2007,09,14,13,51,20.20
2007,09,14,13,52,20.20
2007,09,14,13,53,20.40
2007,09,14,13,54,20.40
2007,09,14,13,55,20.30
2007,09,14,13,56,20.30
2007,09,14,13,57,20.30
2007,09,14,13,58,20.30
2007,09,14,13,59,20.20
2007,09,14,14,00,20.20
2007,09,14,14,01,20.30
2007,09,14,14,02,20.40
2007,09,14,14,03,20.40
2007,09,14,14,04,20.50
2007,09,14,14,05,20.50
2007,09,14,14,06,20.50
2007,09,14,14,07,20.50
2007,09,14,14,08,20.50
2007,09,14,14,09,20.40
2007,09,14,14,10,20.30
2007,09,14,14,11,20.20
2007,09,14,14,12,20.20
2007,09,14,14,13,20.20
2007,09,14,14,14,20.20
2007,09,14,14,15,20.20
2007,09,14,14,16,20.20
2007,09,14,14,17,20.30
2007,09,14,14,18,20.30
2007,09,14,14,19,20.40
2007,09,14,14,20,20.40
2007,09,14,14,21,20.50
2007,09,14,14,22,20.60
2007,09,14,14,23,20.60
2007,09,14,14,24,20.70
2007,09,14,14,25,20.60
2007,09,14,14,26,20.50
2007,09,14,14,27,20.50
2007,09,14,14,28,20.50
2007,09,14,14,29,20.50
2007,09,14,14,30,20.50
2007,09,14,14,31,20.50
2007,09,14,14,32,20.50
2007,09,14,14,33,20.50
2007,09,14,14,34,20.50
2007,09,14,14,35,20.50
2007,09,14,14,36,20.50
2007,09,14,14,37,20.50
2007,09,14,14,38,20.50
2007,09,14,14,39,20.60
2007,09,14,14,40,20.50
2007,09,14,14,41,20.40
2007,09,14,14,42,20.50
2007,09,14,14,43,20.50
2007,09,14,14,44,20.50
2007,09,14,14,45,20.40
2007,09,14,14,46,20.30
2007,09,14,14,47,20.30
2007,09,14,14,48,20.20
2007,09,14,14,49,20.20
2007,09,14,14,50,20.20
2007,09,14,14,51,20.20
2007,09,14,14,52,20.20
2007,09,14,14,53,20.20
2007,09,14,14,54,20.20
2007,09,14,14,55,20.20
2007,09,14,14,56,20.20
2007,09,14,14,57,20.10
2007,09,14,14,58,20.10
2007,09,14,14,59,20.10
2007,09,14,15,00,20.00
2007,09,14,15,01,20.10
2007,09,14,15,02,20.10
2007,09,14,15,03,20.10
2007,09,14,15,04,20.20
2007,09,14,15,05,20.20
2007,09,14,15,06,20.20
2007,09,14,15,07,20.20
2007,09,14,15,08,20.20
2007,09,14,15,09,20.30
2007,09,14,15,10,20.20
2007,09,14,15,11,20.20
2007,09,14,15,12,20.20
2007,09,14,15,13,20.20
2007,09,14,15,14,20.10
2007,09,14,15,15,20.10
2007,09,14,15,16,20.20
2007,09,14,15,17,20.20
2007,09,14,15,18,20.10
2007,09,14,15,19,20.10
2007,09,14,15,20,19.90
2007,09,14,15,21,19.90
2007,09,14,15,22,19.90
2007,09,14,15,23,19.70
2007,09,14,15,24,19.70
2007,09,14,15,25,19.70
2007,09,14,15,26,19.60
2007,09,14,15,27,19.60
2007,09,14,15,28,19.60
2007,09,14,15,29,19.50
2007,09,14,15,30,19.50
2007,09,14,15,31,19.50
2007,09,14,15,32,19.50
2007,09,14,15,33,19.60
2007,09,14,15,34,19.60
2007,09,14,15,35,19.70
2007,09,14,15,36,19.60
2007,09,14,15,37,19.70
2007,09,14,15,38,19.60
2007,09,14,15,39,19.60
2007,09,14,15,40,19.70
2007,09,14,15,41,19.70
2007,09,14,15,42,19.70
2007,09,14,15,43,19.70
2007,09,14,15,44,19.60
2007,09,14,15,45,19.60
2007,09,14,15,46,19.70
2007,09,14,15,47,19.70
2007,09,14,15,48,19.70
2007,09,14,15,49,19.70
2007,09,14,15,50,19.80
2007,09,14,15,51,19.90
2007,09,14,15,52,19.90
2007,09,14,15,53,19.90
2007,09,14,15,54,19.90
2007,09,14,15,55,20.00
2007,09,14,15,56,20.10
2007,09,14,15,57,20.20
2007,09,14,15,58,20.20
2007,09,14,15,59,20.20
2007,09,14,16,00,20.20
2007,09,14,16,01,20.20
2007,09,14,16,02,20.10
2007,09,14,16,03,20.10
2007,09,14,16,04,20.10
2007,09,14,16,05,20.00
2007,09,14,16,06,20.10
2007,09,14,16,07,20.10
2007,09,14,16,08,20.20
2007,09,14,16,09,20.20
2007,09,14,16,10,20.20
2007,09,14,16,11,20.20
2007,09,14,16,12,20.20
2007,09,14,16,13,20.20
2007,09,14,16,14,20.20
2007,09,14,16,15,20.20
2007,09,14,16,16,20.30
2007,09,14,16,17,20.30
2007,09,14,16,18,20.30
2007,09,14,16,19,20.30
2007,09,14,16,20,20.40
2007,09,14,16,21,20.40
2007,09,14,16,22,20.30
2007,09,14,16,23,20.30
2007,09,14,16,24,20.40
2007,09,14,16,25,20.40
2007,09,14,16,26,20.30
2007,09,14,16,27,20.30
2007,09,14,16,28,20.30
2007,09,14,16,29,20.20
2007,09,14,16,30,20.20
2007,09,14,16,31,20.20
2007,09,14,16,32,20.20
2007,09,14,16,33,20.20
2007,09,14,16,34,20.20
2007,09,14,16,35,20.20
2007,09,14,16,36,20.20
2007,09,14,16,37,20.30
2007,09,14,16,38,20.40
2007,09,14,16,39,20.50
2007,09,14,16,40,20.60
2007,09,14,16,41,20.60
2007,09,14,16,42,20.60
2007,09,14,16,43,20.50
2007,09,14,16,44,20.50
2007,09,14,16,45,20.50
2007,09,14,16,46,20.50
2007,09,14,16,47,20.50
2007,09,14,16,48,20.50
2007,09,14,16,49,20.50
2007,09,14,16,50,20.50
2007,09,14,16,51,20.50
2007,09,14,16,52,20.40
2007,09,14,16,53,20.40
2007,09,14,16,54,20.40
2007,09,14,16,55,20.30
2007,09,14,16,56,20.20
2007,09,14,16,57,20.20
2007,09,14,16,58,20.20
2007,09,14,16,59,20.10
2007,09,14,17,00,20.10
2007,09,14,17,01,20.00
2007,09,14,17,02,20.10
2007,09,14,17,03,20.10
2007,09,14,17,04,20.10
2007,09,14,17,05,20.10
2007,09,14,17,06,20.10
2007,09,14,17,07,20.10
2007,09,14,17,08,20.00
2007,09,14,17,09,19.90
2007,09,14,17,10,19.90
2007,09,14,17,11,19.90
2007,09,14,17,12,19.90
2007,09,14,17,13,19.90
2007,09,14,17,14,19.90
2007,09,14,17,15,19.90
2007,09,14,17,16,19.90
2007,09,14,17,17,19.90
2007,09,14,17,18,20.00
2007,09,14,17,19,20.10
2007,09,14,17,20,20.20
2007,09,14,17,21,20.20
2007,09,14,17,22,20.20
2007,09,14,17,23,20.20
2007,09,14,17,24,20.20
2007,09,14,17,25,20.20
2007,09,14,17,26,20.20
2007,09,14,17,27,20.20
2007,09,14,17,28,20.20
2007,09,14,17,29,20.10
2007,09,14,17,30,20.00